Location: Joplin
(37.0842°N, 94.5131°W)
Time: 12:20:09
(UTC-06:00)

N. Korean satellite - Visible Passes

Search period start: 14 December 2018 00:00
Search period end: 24 December 2018 00:00
Orbit: 456 x 511 km, 97.2° (Epoch: 13 December)

Date Brightness Start Highest point End Pass type
(mag) Time Alt. Az. Time Alt. Az. Time Alt. Az.
14 Dec 7.1 06:24:31 10° NNE 06:28:04 63° E 06:31:40 10° S visible
14 Dec 9.1 18:32:11 10° SSW 18:34:56 23° W 18:37:43 10° NW visible
15 Dec 8.8 06:00:19 10° NE 06:03:28 28° E 06:06:38 10° SSE visible
15 Dec 7.4 18:06:58 10° S 18:10:18 51° W 18:13:40 10° NNW visible
16 Dec 9.9 05:36:50 10° ENE 05:38:46 14° E 05:40:43 10° SE visible
16 Dec 6.4 17:42:21 10° SSE 17:45:44 65° ENE 17:49:08 10° N visible
17 Dec 6.5 06:44:11 10° N 06:47:46 66° WNW 06:51:24 10° SSW visible
17 Dec 9.9 18:53:14 10° WSW 18:54:45 12° W 18:56:16 10° WNW visible
18 Dec 7.4 06:19:39 10° NNE 06:23:13 54° E 06:26:48 10° S visible
18 Dec 8.8 18:27:06 10° SSW 18:30:01 26° W 18:32:58 10° NW visible
19 Dec 9.1 05:55:31 10° NE 05:58:34 25° E 06:01:38 10° SSE visible
19 Dec 7.0 18:02:00 10° S 18:05:22 61° W 18:08:48 10° NNW visible
20 Dec 10.0 05:32:18 10° ENE 05:33:51 12° E 05:35:25 10° ESE visible
20 Dec 6.5 17:37:29 10° SSE 17:40:49 55° ENE 17:44:12 10° N visible
21 Dec 6.5 06:39:14 10° N 06:42:53 77° WNW 06:46:34 10° SSW visible
21 Dec 9.8 18:47:50 10° SW 18:49:46 14° W 18:51:44 10° WNW visible
22 Dec 7.8 06:14:45 10° NNE 06:18:18 46° E 06:21:52 10° S visible
22 Dec 8.5 18:22:00 10° SSW 18:25:03 30° W 18:28:09 10° NNW visible
23 Dec 9.3 05:50:43 10° NE 05:53:38 22° E 05:56:34 10° SSE visible
23 Dec 6.7 17:57:01 10° S 18:00:25 72° W 18:03:52 10° NNW visible
